Lafayette, LA

8:29 PM CST on February 25, 2017 (GMT -0600)
Lafayette Regional

Weather History for KLFT - March, 2012

Change the Weather History Date:

Tuesday, March 6, 2012

  Actual Average Record
Temperature  
Mean Temperature 60 °F 60 °F  
Max Temperature 73 °F 70 °F 88 °F (1909)
Min Temperature 47 °F 50 °F 27 °F (1989)
Degree Days  
Heating Degree Days 5 6  
Month to date heating degree days 26 41  
Since 1 July heating degree days 1019 1271  
Cooling Degree Days 0 1  
Month to date cooling degree days 19 6  
Year to date cooling degree days 87 38  
Growing Degree Days 10 (Base 50)    
Moisture  
Dew Point 50 °F    
Average Humidity 66    
Maximum Humidity 100    
Minimum Humidity 31    
Precipitation  
Precipitation 0.00 in 0.14 in 3.14 in (1933)
Month to date precipitation 0.30 0.84  
Year to date precipitation 11.86 10.96  
Snow  
Snow 0.00 in 0.00 in 0.00 in ()
Month to date snowfall 0.0 0.0  
Since 1 July snowfall 0.0 T  
Snow Depth 0.00 in    
Sea Level Pressure  
Sea Level Pressure 30.31 in    
Wind  
Wind Speed 5 mph (SE)    
Max Wind Speed 20 mph    
Max Gust Speed 26 mph    
Visibility 5 miles    
Events Fog    
T = Trace of Precipitation, MM = Missing Value Source: NWS Daily Summary

Daily Weather History Graph

Daily Weather History Graph

Search for Another Location

Airport or City:

Trip Planner

Search our weather history database for the weather conditions in past years. The results will help you decide how hot, cold, wet, or windy it might be!

Date:

Astronomy

Mar. 06, 2012 Rise Set
Actual Time 6:27 AM CST 6:10 PM CST
Civil Twilight 6:03 AM CST 6:34 PM CST
Nautical Twilight 5:36 AM CST 7:02 PM CST
Astronomical Twilight 5:08 AM CST 7:30 PM CST
Moon 4:41 PM CST (3/6) 4:57 AM CST (3/6)
Length of Visible Light 12h 30m
Length of Day
11h 42m
Waxing Gibbous, 96% of the Moon is Illuminated
Mar 6
Waxing Gibbous
Mar 8
Full
Mar 14
Last Quarter
Mar 22
New
Mar 30
First Quarter

Hourly Weather History & Observations

Time (CST) Temp. Dew Point Humidity Pressure Visibility Wind Dir Wind Speed Gust Speed Precip Events Conditions
12:53 AM 53.1 °F 51.1 °F 93% 30.34 in 10.0 mi Calm Calm - N/A   Clear
1:45 AM 51.8 °F 51.8 °F 100% 30.33 in 1.5 mi Calm Calm - N/A   Clear
1:53 AM 52.0 °F 51.1 °F 97% 30.33 in 1.5 mi Calm Calm - N/A   Clear
2:06 AM 51.8 °F 51.8 °F 100% 30.32 in 3.0 mi Calm Calm - N/A   Clear
2:15 AM 51.8 °F 50.0 °F 94% 30.32 in 1.5 mi Calm Calm - N/A   Clear
2:22 AM 51.8 °F 50.0 °F 94% 30.33 in 0.2 mi Calm Calm - N/A Fog Fog
2:39 AM 51.8 °F 50.0 °F 94% 30.32 in 0.2 mi Calm Calm - N/A Fog Fog
2:50 AM 50.0 °F 50.0 °F 100% 30.32 in 0.2 mi Calm Calm - N/A Fog Fog
2:53 AM 51.1 °F 50.0 °F 96% 30.32 in 0.2 mi Calm Calm - N/A Fog Fog
2:59 AM 51.8 °F 48.2 °F 88% 30.32 in 0.2 mi Calm Calm - N/A Fog Fog
3:07 AM 50.0 °F 48.2 °F 94% 30.32 in 0.5 mi Calm Calm - N/A Fog Fog
3:11 AM 51.8 °F 50.0 °F 94% 30.32 in 1.2 mi Calm Calm - N/A   Partly Cloudy
3:22 AM 50.0 °F 48.2 °F 94% 30.31 in 4.0 mi Calm Calm - N/A   Partly Cloudy
3:53 AM 48.9 °F 48.0 °F 97% 30.31 in 3.0 mi Calm Calm - N/A   Clear
3:57 AM 48.2 °F 48.2 °F 100% 30.31 in 1.8 mi Calm Calm - N/A   Clear
4:06 AM 50.0 °F 48.2 °F 94% 30.31 in 0.5 mi Calm Calm - N/A Fog Fog
4:17 AM 48.2 °F 48.2 °F 100% 30.31 in 1.5 mi Calm Calm - N/A   Partly Cloudy
4:31 AM 48.2 °F 48.2 °F 100% 30.31 in 1.0 mi Calm Calm - N/A   Mist
4:36 AM 50.0 °F 48.2 °F 94% 30.31 in 2.0 mi Calm Calm - N/A   Partly Cloudy
4:53 AM 48.9 °F 48.0 °F 97% 30.31 in 2.5 mi Calm Calm - N/A   Clear
5:03 AM 48.2 °F 48.2 °F 100% 30.31 in 1.0 mi Calm Calm - N/A   Clear
5:08 AM 48.2 °F 48.2 °F 100% 30.32 in 0.5 mi Calm Calm - N/A Fog Fog
5:21 AM 48.2 °F 46.4 °F 93% 30.32 in 0.2 mi Calm Calm - N/A Fog Fog
5:53 AM 48.0 °F 48.0 °F 100% 30.32 in 0.2 mi Calm Calm - N/A Fog Fog
6:14 AM 48.2 °F 48.2 °F 100% 30.32 in 0.2 mi Calm Calm - N/A Fog Fog
6:53 AM 50.0 °F 48.9 °F 96% 30.33 in 0.2 mi Calm Calm - N/A Fog Fog
7:14 AM 53.6 °F 51.8 °F 94% 30.34 in 1.0 mi East 3.5 mph - N/A   Mist
7:19 AM 53.6 °F 53.6 °F 100% 30.34 in 3.0 mi Calm Calm - N/A   Mostly Cloudy
7:27 AM 53.6 °F 53.6 °F 100% 30.35 in 4.0 mi East 3.5 mph - N/A   Scattered Clouds
7:53 AM 55.0 °F 54.0 °F 96% 30.36 in 7.0 mi Calm Calm - N/A   Clear
8:53 AM 61.0 °F 55.9 °F 83% 30.36 in 10.0 mi Variable 5.8 mph - N/A   Clear
9:53 AM 66.2 °F 51.8 °F 60% 30.36 in 10.0 mi East 6.9 mph - N/A   Clear
10:53 AM 70.0 °F 46.0 °F 42% 30.36 in 10.0 mi Variable 5.8 mph 16.1 mph N/A   Clear
11:53 AM 72.0 °F 44.1 °F 37% 30.35 in 10.0 mi SSE 11.5 mph 19.6 mph N/A   Clear
12:53 PM 73.0 °F 41.0 °F 31% 30.32 in 10.0 mi South 13.8 mph 23.0 mph N/A   Clear
1:53 PM 73.0 °F 44.1 °F 35% 30.29 in 10.0 mi South 12.7 mph 21.9 mph N/A   Clear
2:53 PM 72.0 °F 44.1 °F 37% 30.27 in 10.0 mi South 16.1 mph 26.5 mph N/A   Clear
3:53 PM 73.0 °F 45.0 °F 37% 30.27 in 10.0 mi South 13.8 mph 24.2 mph N/A   Clear
4:53 PM 69.8 °F 50.0 °F 49% 30.24 in 10.0 mi South 15.0 mph 25.3 mph N/A   Clear
5:53 PM 68.0 °F 52.0 °F 56% 30.24 in 10.0 mi SSE 8.1 mph - N/A   Clear
6:53 PM 66.0 °F 53.1 °F 63% 30.24 in 10.0 mi Variable 4.6 mph - N/A   Clear
7:53 PM 64.4 °F 53.6 °F 68% 30.24 in 10.0 mi Variable 3.5 mph - N/A   Clear
8:53 PM 64.9 °F 53.1 °F 65% 30.25 in 10.0 mi SE 5.8 mph - N/A   Clear
9:53 PM 64.0 °F 53.1 °F 67% 30.26 in 10.0 mi Variable 4.6 mph - N/A   Clear
10:53 PM 64.0 °F 54.0 °F 70% 30.24 in 10.0 mi SE 4.6 mph - N/A   Clear
11:53 PM 64.0 °F 55.9 °F 75% 30.23 in 10.0 mi SE 4.6 mph - N/A   Clear